Terug naar catalogus

STARLINK-32891

ActiefCommunicatieVLEO
NORAD 62927·PAYLOAD·🇺🇸 United States

Gelanceerd Feb 8, 2025 vanaf Cape Canaveral Space Force Station

Loading…

Volgende Passages (komende 24 uur)

TLE

VersSource: CelesTrak SupGP

Epoch: Sep 15, 2026, 03:38 UTC

1 62927C 25027W   26258.15187500  .00058388  00000+0  21153-2 0  2585
2 62927  43.0010 139.1302 0001681 276.6855 142.3906 15.27541047    12

Volg STARLINK-32891 in realtime met AllMySat

Download on the App Store